When you browse on this site, cookies collect data to enhance your experience and personalize the content and advertising you see.
Visit our Privacy Policy to learn more. By continuing to use the site, you agree to this use of cookies and data.
  • In Czech Republic
  • List of Countries
  • For 7 days
  • Water Temperature
  • Satellite Maps
  • Weather Map
  • Weather Widgets
  • user-avatar
    Login

    Hourly Weather West Bend

    Today, 17 July, Wednesday

    Time Temperature Precipitation Wind Pressure Humidity
    00:00 +24°C° 1.1 mm 1 mps 732 mmHg 92%
    01:00 +23°C° 0 mm 1 mps 732 mmHg 92%
    02:00 +23°C° 0 mm 1 mps 732 mmHg 92%
    03:00 +23°C° 0 mm 1 mps 732 mmHg 92%
    04:00 +23°C° 0 mm 1 mps 732 mmHg 92%
    05:00 +23°C° 0 mm 1 mps 733 mmHg 93%
    06:00 +23°C° 0 mm 1 mps 733 mmHg 93%
    07:00 +24°C° 0.3 mm 2 mps 734 mmHg 91%
    08:00 +25°C° 0.3 mm 2 mps 734 mmHg 89%
    09:00 +26°C° 0.3 mm 3 mps 734 mmHg 87%
    10:00 +27°C° 0.3 mm 3 mps 734 mmHg 83%
    11:00 +28°C° 0.3 mm 2 mps 735 mmHg 80%
    12:00 +29°C° 0.3 mm 2 mps 735 mmHg 76%
    13:00 +29°C° 0.2 mm 2 mps 734 mmHg 75%
    14:00 +29°C° 0.2 mm 2 mps 734 mmHg 74%
    15:00 +29°C° 0.2 mm 2 mps 733 mmHg 73%
    16:00 +28°C° 0 mm 2 mps 733 mmHg 76%
    17:00 +27°C° 0 mm 2 mps 733 mmHg 80%
    18:00 +27°C° 0 mm 2 mps 733 mmHg 84%
    19:00 +25°C° 0 mm 3 mps 733 mmHg 87%
    20:00 +24°C° 0 mm 3 mps 733 mmHg 89%
    21:00 +22°C° 0 mm 3 mps 733 mmHg 92%
    22:00 +22°C° 0 mm 3 mps 733 mmHg 92%
    23:00 +22°C° 0 mm 4 mps 733 mmHg 93%

    Tomorrow, 18 July, Thursday

    Time Temperature Precipitation Wind Pressure Humidity
    00:00 +22°C° 0 mm 4 mps 732 mmHg 94%
    01:00 +22°C° 0 mm 4 mps 732 mmHg 93%
    02:00 +22°C° 0 mm 5 mps 731 mmHg 92%
    03:00 +23°C° 0 mm 5 mps 731 mmHg 91%
    04:00 +23°C° 0.3 mm 6 mps 731 mmHg 91%
    05:00 +23°C° 0.3 mm 6 mps 730 mmHg 92%
    06:00 +24°C° 0.3 mm 7 mps 730 mmHg 93%
    07:00 +26°C° 0.1 mm 6 mps 730 mmHg 91%
    08:00 +27°C° 0.1 mm 6 mps 730 mmHg 89%
    09:00 +28°C° 0.1 mm 6 mps 729 mmHg 87%
    10:00 +29°C° 0.1 mm 6 mps 729 mmHg 85%
    11:00 +30°C° 0.1 mm 6 mps 729 mmHg 83%
    12:00 +32°C° 0.1 mm 6 mps 729 mmHg 80%
    13:00 +32°C° 0 mm 6 mps 729 mmHg 80%
    14:00 +33°C° 0 mm 6 mps 729 mmHg 79%
    15:00 +33°C° 0 mm 6 mps 728 mmHg 79%
    16:00 +33°C° 0 mm 6 mps 728 mmHg 81%
    17:00 +32°C° 0 mm 6 mps 728 mmHg 83%
    18:00 +32°C° 0 mm 6 mps 728 mmHg 85%
    19:00 +30°C° 0 mm 6 mps 728 mmHg 85%
    20:00 +30°C° 0 mm 7 mps 729 mmHg 85%
    21:00 +29°C° 0 mm 7 mps 729 mmHg 86%
    22:00 +29°C° 0 mm 7 mps 729 mmHg 86%
    23:00 +29°C° 0 mm 7 mps 729 mmHg 87%

    Day after tomorrow, 19 July, Friday

    Time Temperature Precipitation Wind Pressure Humidity
    00:00 +29°C° 0 mm 7 mps 729 mmHg 87%
    01:00 +29°C° 0 mm 7 mps 729 mmHg 88%
    02:00 +28°C° 0 mm 6 mps 729 mmHg 89%
    03:00 +28°C° 0 mm 6 mps 729 mmHg 90%
    04:00 +28°C° 0.1 mm 6 mps 729 mmHg 90%
    05:00 +28°C° 0.1 mm 5 mps 729 mmHg 91%
    06:00 +27°C° 0.1 mm 5 mps 730 mmHg 92%
    07:00 +28°C° 0 mm 5 mps 730 mmHg 90%
    08:00 +29°C° 0 mm 5 mps 730 mmHg 87%
    09:00 +30°C° 0 mm 5 mps 730 mmHg 85%
    10:00 +32°C° 0 mm 5 mps 730 mmHg 83%
    11:00 +32°C° 0 mm 5 mps 730 mmHg 81%
    12:00 +33°C° 0 mm 5 mps 730 mmHg 79%
    13:00 +33°C° 0 mm 6 mps 730 mmHg 78%
    14:00 +34°C° 0 mm 7 mps 730 mmHg 78%
    15:00 +34°C° 0 mm 7 mps 729 mmHg 77%
    16:00 +33°C° 0 mm 7 mps 729 mmHg 79%
    17:00 +33°C° 0 mm 7 mps 729 mmHg 82%
    18:00 +32°C° 0 mm 7 mps 728 mmHg 84%
    19:00 +30°C° 0 mm 7 mps 729 mmHg 85%
    20:00 +30°C° 0 mm 7 mps 729 mmHg 86%
    21:00 +30°C° 0 mm 7 mps 730 mmHg 86%
    22:00 +30°C° 0.1 mm 7 mps 730 mmHg 87%
    23:00 +29°C° 0.1 mm 6 mps 730 mmHg 88%

    20 July, Saturday

    Time Temperature Precipitation Wind Pressure Humidity
    00:00 +29°C° 0.1 mm 6 mps 730 mmHg 89%
    01:00 +28°C° 0.1 mm 5 mps 730 mmHg 91%
    02:00 +28°C° 0.1 mm 4 mps 730 mmHg 94%
    03:00 +27°C° 0.1 mm 3 mps 730 mmHg 96%
    04:00 +25°C° 0.6 mm 3 mps 730 mmHg 95%
    05:00 +24°C° 0.6 mm 3 mps 731 mmHg 94%
    06:00 +21°C° 0.6 mm 3 mps 731 mmHg 94%
    07:00 +22°C° 0.3 mm 3 mps 731 mmHg 91%
    08:00 +24°C° 0.3 mm 3 mps 732 mmHg 88%
    09:00 +24°C° 0.3 mm 3 mps 732 mmHg 86%
    10:00 +25°C° 0 mm 3 mps 733 mmHg 81%
    11:00 +26°C° 0 mm 3 mps 733 mmHg 75%
    12:00 +27°C° 0 mm 4 mps 733 mmHg 70%
    13:00 +28°C° 0 mm 3 mps 733 mmHg 67%
    14:00 +28°C° 0 mm 3 mps 733 mmHg 65%
    15:00 +29°C° 0 mm 3 mps 733 mmHg 62%
    16:00 +28°C° 0 mm 3 mps 733 mmHg 66%
    17:00 +27°C° 0 mm 2 mps 733 mmHg 70%
    18:00 +26°C° 0 mm 2 mps 733 mmHg 74%
    19:00 +24°C° 0 mm 2 mps 733 mmHg 76%
    20:00 +23°C° 0 mm 2 mps 733 mmHg 78%
    21:00 +21°C° 0 mm 1 mps 734 mmHg 81%
    22:00 +20°C° 0 mm 2 mps 734 mmHg 81%
    23:00 +20°C° 0 mm 2 mps 734 mmHg 82%

    21 July, Sunday

    Time Temperature Precipitation Wind Pressure Humidity
    00:00 +19°C° 0 mm 2 mps 735 mmHg 82%
    01:00 +19°C° 0 mm 2 mps 735 mmHg 85%
    02:00 +18°C° 0 mm 2 mps 735 mmHg 87%
    03:00 +17°C° 0 mm 3 mps 735 mmHg 90%
    04:00 +18°C° 0 mm 3 mps 735 mmHg 90%
    05:00 +18°C° 0 mm 3 mps 735 mmHg 90%
    06:00 +18°C° 0 mm 3 mps 735 mmHg 90%
    07:00 +19°C° 0 mm 4 mps 736 mmHg 85%
    08:00 +20°C° 0 mm 5 mps 736 mmHg 81%
    09:00 +22°C° 0 mm 5 mps 736 mmHg 77%
    10:00 +22°C° 0 mm 5 mps 736 mmHg 73%
    11:00 +22°C° 0 mm 5 mps 737 mmHg 69%
    12:00 +22°C° 0 mm 5 mps 737 mmHg 65%
    13:00 +22°C° 0 mm 5 mps 736 mmHg 63%
    14:00 +22°C° 0 mm 5 mps 736 mmHg 60%
    15:00 +22°C° 0 mm 5 mps 736 mmHg 58%
    16:00 +21°C° 0 mm 4 mps 736 mmHg 61%
    17:00 +21°C° 0 mm 3 mps 736 mmHg 65%
    18:00 +20°C° 0 mm 2 mps 736 mmHg 68%
    19:00 +19°C° 0 mm 2 mps 737 mmHg 63%
    20:00 +18°C° 0 mm 2 mps 737 mmHg 58%
    21:00 +16°C° 0 mm 2 mps 737 mmHg 53%
    22:00 +16°C° 0 mm 2 mps 737 mmHg 51%
    23:00 +16°C° 0 mm 2 mps 737 mmHg 50%

    22 July, Monday

    Time Temperature Precipitation Wind Pressure Humidity
    00:00 +16°C° 0 mm 2 mps 737 mmHg 48%
    01:00 +16°C° 0 mm 2 mps 738 mmHg 48%
    02:00 +16°C° 0 mm 2 mps 738 mmHg 49%
    03:00 +15°C° 0 mm 2 mps 738 mmHg 49%
    04:00 +15°C° 0 mm 2 mps 738 mmHg 55%
    05:00 +16°C° 0 mm 2 mps 738 mmHg 61%
    06:00 +16°C° 0 mm 2 mps 739 mmHg 67%
    07:00 +18°C° 0 mm 2 mps 739 mmHg 67%
    08:00 +20°C° 0 mm 3 mps 739 mmHg 67%
    09:00 +22°C° 0 mm 3 mps 739 mmHg 67%
    10:00 +24°C° 0 mm 3 mps 739 mmHg 63%
    11:00 +25°C° 0 mm 3 mps 740 mmHg 59%
    12:00 +26°C° 0 mm 3 mps 740 mmHg 55%
    13:00 +26°C° 0 mm 3 mps 739 mmHg 56%
    14:00 +26°C° 0 mm 3 mps 739 mmHg 56%
    15:00 +26°C° 0 mm 3 mps 739 mmHg 56%
    16:00 +26°C° 0 mm 3 mps 739 mmHg 62%
    17:00 +25°C° 0 mm 3 mps 739 mmHg 67%
    18:00 +24°C° 0 mm 2 mps 739 mmHg 73%
    19:00 +23°C° 0 mm 2 mps 739 mmHg 75%
    20:00 +20°C° 0 mm 3 mps 739 mmHg 78%
    21:00 +19°C° 0 mm 3 mps 740 mmHg 81%
    22:00 +18°C° 0 mm 3 mps 739 mmHg 84%
    23:00 +18°C° 0 mm 3 mps 739 mmHg 87%
    Show more